Regional Weather Roundup
Issued by NWS Sterling, VA

Home | Current Version | Previous Version | Graphics & Text | Print | Product List | Glossary On
Versions: 1 2 3 4 5 6 7 8 9 10 11 12 13 14 15 16 17 18 19 20 21 22 23 24 25 26 27
000
ASUS41 KLWX 272111
RWRLWX

REGIONAL WEATHER ROUNDUP
NATIONAL WEATHER SERVICE BALTIMORE MD/WASHINGTON DC
500 PM EDT MON MAR 27 2017

Note: "FAIR" indicates few or no clouds below 12,000 feet
with no significant weather and/or obstructions to visibility.
 TC=TEMPERATURE CELSIUS

 * =Non NWS site. Station does not report precipitation (e.g. rain,
    snow, etc.), thunder, or fog.

DCZ001-MDZ009-015-VAZ040>042-051-053>054-272200-
WASHINGTON METRO

CITY           SKY/WX    TMP DP  RH WIND       PRES   REMARKS
WASHINGTON NAT PTSUNNY   73  58  59 N5        29.94F
DULLES         MOSUNNY   74  54  49 VRB3      29.93F
ANDREWS AFB    SUNNY     75  56  51 CALM      29.93F
FT BELVOIR     MOSUNNY   77  54  45 VRB3      29.93F
QUANTICO       PTSUNNY   68  55  63 S5        29.93F
COLLEGE PARK*  SUNNY     73  56  54 SW3       29.94F
LEESBURG*      SUNNY     73  61  64 CALM      29.95F
MANASSAS*        N/A    N/A N/A N/A SE3       29.93F

$$

MDZ006>007-011-014-272200-
BALTIMORE METRO

CITY           SKY/WX    TMP DP  RH WIND       PRES   REMARKS
BWI AIRPORT    PTSUNNY   69  55  60 E7        29.95F
MD SCIENCE CTR   N/A     64  51  62 MISG      29.96F
MARTIN STATE   MOSUNNY   61  55  82 SE6       29.98F
ANNAPOLIS      SUNNY     62  54  74 E3        29.96F
FORT MEADE*    SUNNY     72  54  53 CALM      29.97F

$$

MDZ012-015-019>023-272200-
MARYLAND EASTERN SHORE

CITY           SKY/WX    TMP DP  RH WIND       PRES   REMARKS
OCEAN CITY     MOSUNNY   64  52  64 SW12G21   30.00F
SALISBURY      MOSUNNY   74  57  55 S16       29.97F
BAY BRIDGE AP* MOSUNNY   64  55  72 CALM      29.96F
CAMBRIDGE*     SUNNY     72  57  60 SE13      29.96F
EASTON*        MOSUNNY   75  57  53 SW7       30.00F

$$

MDZ017>025-272200-
SOUTHERN MARYLAND

CITY           SKY/WX    TMP DP  RH WIND       PRES   REMARKS
PATUXENT RIVER PTSUNNY   76  60  57 S10       29.94F
ST INIGOES     MOSUNNY   76  57  51 S8        29.94F
LEONARDTOWN*   SUNNY     77  55  47 SW7       29.96F

$$

MDZ003>005-272200-
NORTH CENTRAL MARYLAND

CITY           SKY/WX    TMP DP  RH WIND       PRES   REMARKS
FREDERICK*     SUNNY     73  61  64 W6        29.97F
HAGERSTOWN APT SUNNY     71  56  58 S6        29.93F
WESTMINSTER*   SUNNY     73  55  53 W8        29.95F

$$

MDZ501>502-272200-
WESTERN MARYLAND

CITY           SKY/WX    TMP DP  RH WIND       PRES   REMARKS
OAKLAND*       SUNNY     61  46  59 W9        29.98F
CUMBERLAND*    MOSUNNY   72  50  46 CALM      29.94F

$$

VAZ025>031-272200-
SHENANDOAH VALLEY

CITY           SKY/WX    TMP DP  RH WIND       PRES   REMARKS
WINCHESTER*    MOSUNNY   70  55  60 N3        29.93F
FRONT ROYAL*   CLOUDY    72  57  60 CALM      29.91F
LURAY*         MOSUNNY   77  52  41 SW3       29.92F
NEW MARKET*    MOSUNNY   76  50  39 S9        29.90F
STAUNTON*      MOSUNNY   75  47  37 W5        29.94F
WAYNESBORO*    SUNNY     74  57  55 S9        29.95S

$$

WVZ021-048>050-054>055-272200-
EASTERN WEST VIRGINIA PANHANDLE

CITY           SKY/WX    TMP DP  RH WIND       PRES   REMARKS
MARTINSBURG    SUNNY     71  55  56 VRB3      29.92F
PETERSBURG*    CLOUDY    76  52  43 CALM      29.92S

$$

VAZ036>039-050-272200-
CENTRAL FOOTHILLS

CITY           SKY/WX    TMP DP  RH WIND       PRES   REMARKS
CHARLOTTESVILL SUNNY     77  57  50 S13       29.92F
CULPEPER*      PTSUNNY   79  57  45 S7        29.93F
ORANGE*        SUNNY     77  55  47 SW12      29.94F
GORDONSVILLE*  SUNNY     77  57  50 S10       29.92F
WARRENTON*     PTSUNNY   79  50  35 SW6       29.92F

$$

VAZ055>057-272200-
NORTH AND CENTRAL PIEDMONT

CITY           SKY/WX    TMP DP  RH WIND       PRES   REMARKS
FREDERICKSBRG* MOSUNNY   79  57  46 S10       29.92F
STAFFORD*      MOSUNNY   77  55  45 SW6       29.96F

$$

NCZ024-NYZ072-PAZ021-071-VAZ022-071-272200-
OTHER REGIONAL OBSERVATIONS

CITY           SKY/WX    TMP DP  RH WIND       PRES   REMARKS
NEW YORK CITY  CLOUDY    51  45  79 CALM      30.02S
PHILADELPHIA   PTSUNNY   60  52  74 S6        29.99F
PITTSBURGH     CLOUDY    67  48  50 SW8       29.92S
ROANOKE        PTSUNNY   76  56  49 S9        29.95F
RICHMOND       PTSUNNY   78  56  46 S9        29.95F
RALEIGH        PTSUNNY   78  58  49 SW10      29.99F

$$

ANZ530>537-272200-
MARINE OBSERVATIONS

STATION/POSITION TIME  TEMP    WIND        PRES
                       AIR SEA DIR/SP/G
                 (UTC) (F)     (DEG/KT/KT) (MB)
THOMAS PT LIGHT  2100   53 45   30/  8/  9   N/A
BALT KEY BRIDGE  2042   56     130/  8/  9 1014.6F
COVE POINT       2042   53     170/ 14/ 14 1014.9F
LEWISETTA        2042   74 54  240/  8/  9 1014.0F
SOLOMONS ISLAND  2042   71 50  220/  7/  9   N/A
PINEY POINT      2048          200/ 10/ 11   N/A

$$





USA.gov is the U.S. government's official web portal to all federal, state and local government web resources and services.